[[{"header":{"parameterUnit":"m.s-1","parameterCategory":1,"la1":30.2991,"la2":30.254,"lo1":-89.0895,"lo2":-89.0444,"dy":0.0017,"dx":0.0017,"nx":28,"ny":28,"refTime":"2023-09-27T21:00:00:Z","depth":0,"parameterNumber":2,"parameterNumberName":"U-component_of_WINDS"},"data":[0,0,0,0,0,0,0,0,0,0,0,0,0,0,0,0,0,0,0,0,0,0,0,0,0,0,0,0,0,0,0,0,0,0,0,0,0,0,0,0,0,0,0,0,0,0,0,0,0,0,0,0,0,0,0,0,0,0,-4.7699,-4.77,0,-4.7745,-4.7745,-4.7746,-4.7565,-4.756,-4.7555,-4.755,-4.7596,-4.7602,-4.7609,0,0,0,0,0,0,0,0,0,0,0,0,0,-4.7456,-4.7462,-4.7699,-4.77,-4.77,-4.7744,-4.7745,-4.7746,-4.7566,-4.756,-4.7553,-4.7547,-4.7594,-4.7602,-4.7609,0,0,0,0,0,0,0,0,0,0,0,0,0,-4.7538,-4.7463,-4.7699,-4.7616,-4.7609,-4.7744,-4.7745,-4.7746,-4.7568,-4.756,-4.7552,-4.7544,-4.7592,-4.7601,-4.761,-4.7827,0,0,-4.7639,-4.7643,0,0,0,0,0,0,0,0,-4.7533,-4.7547,-4.7628,-4.7622,-4.7615,-4.7641,-4.7676,-4.7773,-4.757,-4.7584,-4.755,-4.754,-4.7618,-4.7624,-4.765,-4.7829,-4.7831,-4.7639,-4.7645,-4.7649,-4.7652,0,0,0,0,0,0,0,-4.7528,-4.7544,-4.7717,-4.7629,-4.7621,-4.7576,-4.7579,-4.7694,-4.7645,-4.7582,-4.7569,-4.7577,-4.7613,-4.7642,-4.765,-4.7832,-4.7639,-4.7647,-4.7653,-4.7657,-4.8189,-4.8198,0,0,0,0,0,0,-4.7533,-4.754,-4.7716,-4.7718,-4.7554,-4.7587,-4.759,-4.7641,-4.7643,-4.7636,-4.7583,-4.7568,-4.763,-4.764,-4.7651,-4.7904,-4.7649,-4.7658,-4.7663,-4.8181,-4.8191,-4.8201,0,0,0,0,0,0,-4.7529,-4.7551,-4.7714,-4.7626,-4.7643,-4.76,-4.7658,-4.7646,-4.7675,-4.7644,-4.7635,-4.7622,-4.7624,-4.7638,-4.7784,-4.7903,-4.7662,-4.767,-4.8171,-4.8184,-4.8196,-4.8413,0,0,0,0,0,0,-4.7523,-4.755,-4.7633,-4.7629,-4.7649,-4.7847,-4.7665,-4.7652,-4.7691,-4.7672,-4.7678,-4.7672,-4.7619,-4.7771,-4.7794,-4.7912,-4.7678,-4.816,-4.8177,-4.8192,-4.8395,-4.8432,-4.8463,0,0,0,0,0,-4.7515,-4.7692,-4.7638,-4.766,-4.7751,-4.7855,-4.7866,-4.7801,-4.7702,-4.7784,-4.7764,-4.7672,-4.7887,-4.7788,-4.7811,-4.7934,-4.8152,-4.8172,-4.8191,-4.838,-4.8425,-4.8463,0,0,0,0,0,0,-4.7711,-4.769,-4.763,-4.7812,-4.7836,-4.7824,-4.7926,-4.7851,-4.7904,-4.7883,-4.7801,-4.7804,-4.7965,-4.7964,-4.7854,-4.8143,-4.8002,-4.8027,-4.8138,-4.818,-4.8214,-4.821,-4.7685,0,0,0,0,0,-4.7776,-4.7862,-4.7839,-4.8002,-4.8017,-4.797,-4.8013,-4.7961,-4.7983,-4.7992,-4.7983,-4.8008,-4.808,-4.813,-4.8196,-4.8394,-4.8392,-4.849,-4.8524,-4.8552,-4.8575,-4.8678,-4.8721,-4.8264,-4.8264,-4.8263,0,0,-4.791,-4.7909,-4.7969,-4.8041,-4.8054,-4.8144,-4.798,-4.8083,-4.8149,-4.8008,-4.8145,-4.8139,-4.8161,-4.8335,-4.841,-4.8339,-4.87,-4.8577,-4.86,-4.8606,-4.8702,-4.8746,-4.8784,-4.8277,-4.8275,-4.8273,0,0,-4.82,-4.8209,-4.8345,-4.8361,-4.8382,-4.835,-4.8383,-4.8382,-4.8372,-4.8509,-4.8404,-4.8482,-4.861,-4.8629,-4.8656,-4.8953,-4.887,-4.8977,-4.9155,-4.9257,-4.9293,-4.9324,-4.9429,-4.9468,-4.8999,-4.9,-4.9,0,-4.8364,-4.8497,-4.8424,-4.8534,-4.8569,-4.8445,-4.8581,-4.86,-4.8643,-4.8669,-4.8588,-4.8745,-4.8751,-4.8927,-4.8999,-4.9026,-4.906,-4.8976,-4.9293,-4.9324,-4.9352,-4.9452,-4.9492,-4.9013,-4.9011,-4.901,-4.9009,0,-4.8696,-4.879,-4.8897,-4.8941,-4.8987,-4.911,-4.9056,-4.9111,-4.9055,-4.9031,-4.9171,-4.9174,-4.9238,-4.9275,-4.9222,-4.9443,-4.9398,-4.9307,-4.9163,-4.941,-4.9502,-4.9539,-4.9031,-4.9027,-4.9023,-4.902,0,0,-4.9112,-4.9113,-4.9154,-4.9171,-4.9186,-4.9256,-4.9373,-4.9435,-4.9484,-4.9517,-4.9612,-4.9723,-4.9638,-4.9669,-4.9617,-4.9706,-4.994,-4.9603,-4.9603,-4.9665,-5.0183,-5.0251,-5.0296,-4.9885,-4.9892,-4.9898,-5.0181,0,-4.9396,-4.9595,-4.9533,-4.9735,-4.9819,-4.9703,-4.9804,-4.9824,-4.9805,-4.9873,-4.9851,-4.993,-4.9813,-4.9831,-4.9914,-4.9894,-5.0043,-4.9873,-4.9972,-4.9977,-4.997,-5.0344,-5.0416,-5.0683,-5.0216,-5.0222,-5.0227,0,-4.9754,-4.9801,-5.0011,-5.001,-5.0043,-5.0136,-5.0186,-5.0254,-5.0273,-5.0253,-5.0287,-5.0216,-5.0329,-5.0186,-5.0341,-5.0227,-5.0264,-5.0261,-5.0269,-5.0275,-5.0116,-5.0359,-5.0767,-5.0807,-5.0283,-5.0278,-5.0274,0,-5.0034,-5.015,-5.029,-5.0309,-5.0312,-5.0379,-5.0384,-5.0395,-5.0436,-5.0481,-5.0506,-5.0564,-5.0596,-5.0642,-5.0588,-5.0488,-5.0751,-5.0603,-5.0736,-5.0738,-5.0796,-5.0793,-5.1214,-5.0822,-5.0821,-5.0821,-5.082,0,-5.0357,-5.049,-5.0416,-5.0503,-5.0647,-5.0574,-5.072,-5.0711,-5.0722,-5.0804,-5.0707,-5.0786,-5.071,-5.0782,-5.074,-5.0874,-5.089,-5.0876,-5.0863,-5.0884,-5.0886,-5.0906,-5.0886,-5.0831,-5.0829,-5.0827,-5.0825,0,-5.0695,-5.0651,-5.0796,-5.0786,-5.0787,-5.0894,-5.0886,-5.0965,-5.0938,-5.1043,-5.1063,-5.1021,-5.1101,-5.1051,-5.1132,-5.1104,-5.1279,-5.1241,-5.1273,-5.1262,-5.1397,-5.1385,-5.1846,-5.1902,-5.1475,-5.148,-5.1483,0,-5.0904,-5.1003,-5.1004,-5.1052,-5.1062,-5.1141,-5.1182,-5.1114,-5.116,-5.119,-5.1265,-5.1336,-5.1389,-5.1522,-5.1498,-5.156,-5.1522,-5.1679,-5.153,-5.1548,-5.1523,-5.1517,-5.1526,-5.1709,-5.1714,-5.1718,-5.1721,0,-5.1278,-5.1251,-5.1314,-5.137,-5.1421,-5.1462,-5.1494,-5.1539,-5.147,-5.1528,-5.1607,-5.1649,-5.1731,-5.1802,-5.1854,-5.1857,-5.1779,-5.1768,-5.1802,-5.1824,-5.1837,-5.1831,-5.1353,-5.1758,-5.1754,-5.1752,-5.175,-5.1748,-5.1556,-5.1638,-5.1652,-5.1725,-5.1742,-5.1775,-5.1848,-5.183,-5.1896,-5.1957,-5.1913,-5.2008,-5.2023,-5.2084,-5.2098,-5.217,-5.2106,-5.2156,-5.2168,-5.2181,-5.2199,-5.1827,-5.218,-5.2178,-5.2177,-5.2176,-5.2176,0,-5.1924,-5.1927,-5.1995,-5.2043,-5.2101,-5.2021,-5.2053,-5.2106,-5.219,-5.2212,-5.2266,-5.2358,-5.2426,-5.2409,-5.247,-5.2532,-5.2497,-5.255,-5.2544,-5.2546,-5.2253,-5.2217,-5.2577,-5.2577,-5.2577,-5.2577,-5.2577,-5.2577,-5.2122,-5.2257,-5.2232,-5.2374,-5.2375,-5.2467,-5.2492,-5.2521,-5.2537,-5.2644,-5.27,-5.2688,-5.2694,-5.2755,-5.2814,-5.2807,-5.2834,-5.29,-5.288,-5.2607,-5.2567,-5.2529,-5.2495,-5.2907,-5.2907,-5.3166,-5.3169,-5.317]},{"header":{"parameterUnit":"m.s-1","parameterCategory":1,"la1":30.2991,"la2":30.254,"lo1":-89.0895,"lo2":-89.0444,"dy":0.0017,"dx":0.0017,"nx":28,"ny":28,"refTime":"2023-09-27T21:00:00:Z","depth":0,"parameterNumber":3,"parameterNumberName":"V-component_of_WINDS"},"data":[0,0,0,0,0,0,0,0,0,0,0,0,0,0,0,0,0,0,0,0,0,0,0,0,0,0,0,0,0,0,0,0,0,0,0,0,0,0,0,0,0,0,0,0,0,0,0,0,0,0,0,0,0,0,0,0,0,0,-1.277,-1.277,0,-1.2767,-1.2767,-1.2767,-1.2775,-1.2776,-1.2776,-1.2776,-1.2772,-1.2772,-1.2772,0,0,0,0,0,0,0,0,0,0,0,0,0,-1.2781,-1.2781,-1.277,-1.277,-1.277,-1.2767,-1.2767,-1.2767,-1.2775,-1.2776,-1.2776,-1.2776,-1.2772,-1.2772,-1.2772,0,0,0,0,0,0,0,0,0,0,0,0,0,-1.2777,-1.278,-1.277,-1.2774,-1.2774,-1.2767,-1.2767,-1.2767,-1.2775,-1.2776,-1.2776,-1.2776,-1.2773,-1.2772,-1.2772,-1.276,0,0,-1.277,-1.277,0,0,0,0,0,0,0,0,-1.2777,-1.2776,-1.2773,-1.2773,-1.2774,-1.2772,-1.2769,-1.2764,-1.2775,-1.2775,-1.2776,-1.2777,-1.2772,-1.2771,-1.277,-1.276,-1.276,-1.277,-1.277,-1.2769,-1.2769,0,0,0,0,0,0,0,-1.2777,-1.2776,-1.2768,-1.2773,-1.2773,-1.2775,-1.2775,-1.2768,-1.2771,-1.2775,-1.2775,-1.2775,-1.2772,-1.277,-1.277,-1.276,-1.277,-1.2769,-1.2769,-1.2769,-1.2738,-1.2737,0,0,0,0,0,0,-1.2777,-1.2777,-1.2769,-1.2768,-1.2776,-1.2774,-1.2774,-1.2772,-1.2771,-1.2771,-1.2775,-1.2775,-1.2771,-1.277,-1.277,-1.2755,-1.2769,-1.2769,-1.2769,-1.2738,-1.2738,-1.2737,0,0,0,0,0,0,-1.2777,-1.2776,-1.2769,-1.2773,-1.2772,-1.2774,-1.2771,-1.2772,-1.277,-1.2771,-1.2771,-1.2773,-1.2771,-1.2771,-1.2762,-1.2755,-1.2769,-1.2768,-1.2739,-1.2738,-1.2738,-1.2726,0,0,0,0,0,0,-1.2778,-1.2776,-1.2773,-1.2773,-1.2772,-1.2762,-1.2771,-1.2771,-1.2769,-1.277,-1.2769,-1.2769,-1.2772,-1.2763,-1.2761,-1.2754,-1.2768,-1.274,-1.2739,-1.2738,-1.2727,-1.2725,-1.2723,0,0,0,0,0,-1.2778,-1.277,-1.2773,-1.2772,-1.2767,-1.2761,-1.2761,-1.2764,-1.2769,-1.2764,-1.2765,-1.2769,-1.2756,-1.2762,-1.276,-1.2753,-1.274,-1.2739,-1.2738,-1.2728,-1.2725,-1.2723,0,0,0,0,0,0,-1.277,-1.277,-1.2773,-1.2765,-1.2763,-1.2763,-1.2758,-1.2761,-1.2758,-1.2759,-1.2762,-1.2762,-1.2752,-1.2752,-1.2759,-1.2741,-1.2749,-1.2747,-1.2742,-1.2739,-1.2737,-1.2737,-1.2767,0,0,0,0,0,-1.2767,-1.2763,-1.2763,-1.2756,-1.2754,-1.2756,-1.2754,-1.2756,-1.2754,-1.2753,-1.2753,-1.2751,-1.2746,-1.2742,-1.2738,-1.2727,-1.2726,-1.2721,-1.2719,-1.2717,-1.2716,-1.2708,-1.2705,-1.2734,-1.2734,-1.2734,0,0,-1.2761,-1.2761,-1.2758,-1.2754,-1.2753,-1.2747,-1.2755,-1.275,-1.2745,-1.2752,-1.2744,-1.2744,-1.2741,-1.2731,-1.2726,-1.273,-1.2708,-1.2716,-1.2715,-1.2714,-1.2706,-1.2704,-1.2701,-1.2733,-1.2733,-1.2733,0,0,-1.2748,-1.2747,-1.274,-1.2739,-1.2736,-1.2737,-1.2735,-1.2734,-1.2734,-1.2726,-1.273,-1.2725,-1.2717,-1.2714,-1.2712,-1.2695,-1.2698,-1.2693,-1.2683,-1.2675,-1.2673,-1.2671,-1.2663,-1.2661,-1.2692,-1.2692,-1.2692,0,-1.2741,-1.2733,-1.2736,-1.273,-1.2727,-1.2732,-1.2724,-1.2723,-1.2719,-1.2717,-1.2721,-1.271,-1.2708,-1.2696,-1.2692,-1.269,-1.2687,-1.2693,-1.2673,-1.2671,-1.2669,-1.2662,-1.2659,-1.2691,-1.2691,-1.2691,-1.2691,0,-1.2724,-1.2718,-1.2713,-1.2709,-1.2705,-1.2698,-1.2699,-1.2695,-1.2697,-1.2697,-1.2687,-1.2686,-1.268,-1.2678,-1.268,-1.2665,-1.2668,-1.2672,-1.268,-1.2666,-1.2659,-1.2656,-1.269,-1.269,-1.269,-1.2691,0,0,-1.2706,-1.2702,-1.27,-1.2697,-1.2694,-1.269,-1.2682,-1.2676,-1.2672,-1.2669,-1.2662,-1.2654,-1.2657,-1.2655,-1.2656,-1.265,-1.2634,-1.2655,-1.2655,-1.265,-1.2616,-1.2612,-1.2609,-1.2636,-1.2636,-1.2636,-1.2616,0,-1.2692,-1.2679,-1.268,-1.2668,-1.2661,-1.2665,-1.2658,-1.2655,-1.2654,-1.2648,-1.2647,-1.2641,-1.2647,-1.2645,-1.2639,-1.2637,-1.2627,-1.2639,-1.2629,-1.2628,-1.2628,-1.2605,-1.2601,-1.2583,-1.2613,-1.2613,-1.2612,0,-1.2674,-1.2669,-1.2656,-1.2652,-1.2649,-1.2643,-1.2636,-1.2631,-1.2627,-1.2627,-1.2622,-1.2625,-1.2615,-1.2623,-1.261,-1.2618,-1.2614,-1.2612,-1.2611,-1.261,-1.2619,-1.2602,-1.2577,-1.2574,-1.2609,-1.2609,-1.2609,0,-1.2661,-1.2651,-1.2641,-1.2639,-1.2634,-1.2629,-1.2627,-1.2623,-1.2619,-1.2613,-1.261,-1.2604,-1.26,-1.2594,-1.2594,-1.26,-1.258,-1.2588,-1.2578,-1.2578,-1.2574,-1.2574,-1.2546,-1.2572,-1.2572,-1.2572,-1.2572,0,-1.2645,-1.2636,-1.2635,-1.2629,-1.2619,-1.262,-1.2609,-1.2607,-1.2603,-1.2596,-1.2599,-1.2592,-1.2592,-1.2585,-1.2585,-1.2572,-1.2571,-1.257,-1.257,-1.2569,-1.2569,-1.2566,-1.2567,-1.2572,-1.2572,-1.2572,-1.2572,0,-1.2629,-1.2628,-1.2617,-1.2613,-1.2612,-1.2604,-1.26,-1.2593,-1.2592,-1.2583,-1.258,-1.2578,-1.2569,-1.2568,-1.2559,-1.2558,-1.2543,-1.2545,-1.2544,-1.2544,-1.2534,-1.2534,-1.2503,-1.2498,-1.2528,-1.2528,-1.2527,0,-1.2618,-1.2611,-1.2606,-1.2601,-1.2598,-1.2591,-1.2586,-1.2586,-1.2581,-1.2574,-1.2568,-1.2559,-1.2552,-1.2537,-1.2534,-1.2526,-1.2527,-1.2516,-1.2526,-1.2525,-1.2525,-1.2525,-1.2524,-1.2514,-1.2514,-1.2514,-1.2514,0,-1.2599,-1.2599,-1.2592,-1.2584,-1.2578,-1.2572,-1.2567,-1.2562,-1.2561,-1.2555,-1.2546,-1.254,-1.2529,-1.2519,-1.2511,-1.2508,-1.251,-1.251,-1.2507,-1.2507,-1.2506,-1.2505,-1.2538,-1.2511,-1.2511,-1.2512,-1.2512,-1.2512,-1.2585,-1.2578,-1.2573,-1.2564,-1.256,-1.2554,-1.2547,-1.2544,-1.2536,-1.2527,-1.2527,-1.2516,-1.251,-1.2498,-1.2494,-1.2485,-1.2488,-1.2484,-1.2483,-1.2482,-1.248,-1.2508,-1.2483,-1.2484,-1.2484,-1.2484,-1.2484,0,-1.2565,-1.2561,-1.2553,-1.2545,-1.2537,-1.254,-1.2533,-1.2527,-1.2517,-1.2511,-1.2503,-1.2491,-1.2482,-1.2477,-1.2468,-1.2461,-1.2461,-1.2458,-1.2458,-1.2457,-1.2479,-1.2481,-1.2458,-1.2458,-1.2458,-1.2458,-1.2458,-1.2458,-1.2554,-1.2542,-1.254,-1.2525,-1.2521,-1.251,-1.2506,-1.25,-1.2495,-1.2481,-1.2473,-1.247,-1.2464,-1.2453,-1.2444,-1.2443,-1.2438,-1.2434,-1.2433,-1.2453,-1.2456,-1.2459,-1.2461,-1.2434,-1.2434,-1.2413,-1.2413,-1.2412]}]]